Temperature
13 13 13 13 13 13 13 13 12 12 12 12 12 12 12 12 12 12 12 12 12 12 11 11 11 11 11 11 11 11 11 11 11 11 11 11 11 11 11 11 11 11 11
12 12 12 12 12 12 12 12 12 12 12 12 12 12 12 11 11 11 11 11 11 11 11 11 11 11 11 11 11 11 11 11 11 11 11 11 10 10 10 10 10 10 10
12 12 12 12 12 12 12 12 11 11 11 11 11 11 11 11 11 11 11 11 11 11 11 11 11 10 10 10 10 10 10 10 10 10 10 10 10 10 10 10 10 10 10
11 11 11 11 11 11 11 11 11 11 11 10 10 10 10 10 10 10 10 10 10 10 10 10 10 10 10 10 10 10 10 10 10 10 10 10 9 9 9 9 9 9 9
11 11 11 11 11 11 11 11 10 10 10 10 10 10 10 10 10 10 9 9 9 9 9 9 9 9 9 9 9 9 9 9 9 9 9 9 9 9 9 9 8 8 8
11 10 10 10 10 10 10 10 10 10 10 9 9 9 10 10 9 9 9 9 9 9 9 9 9 9 9 9 9 9 9 9 9 8 8 8 8 8 8 8 8 8 8
10 10 10 10 10 10 10 9 9 9 9 9 9 8 9 9 9 8 8 8 8 8 8 8 8 8 8 8 8 8 8 8 8 8 7 7 7 7 7 7 7 7 7
10 10 9 9 9 9 9 9 9 9 8 8 8 7 7 8 8 8 8 8 7 7 8 8 7 7 7 7 8 8 8 7 7 7 7 7 6 6 7 7 7 7 7
9 9 9 9 9 9 9 9 8 8 8 8 7 7 7 7 7 7 7 7 7 7 7 7 7 7 7 7 7 7 7 7 7 7 6 6 6 6 6 6 6 6 6
9 9 9 9 9 8 8 8 8 8 8 7 7 7 6 6 5 6 6 7 7 6 6 7 7 7 6 6 6 6 6 6 6 6 6 6 5 5 5 6 6 6 6
8 8 8 8 8 8 8 8 8 7 7 7 7 6 6 6 5 5 5 6 6 6 6 6 6 6 6 6 6 6 6 6 6 6 6 5 5 5 5 5 5 5 5
8 8 8 8 8 8 8 7 7 7 7 6 6 6 6 5 5 5 4 5 5 5 6 6 6 5 5 5 5 5 5 5 5 5 5 5 4 4 4 4 5 5 5
8 8 8 8 7 7 7 7 7 7 6 6 6 6 5 5 5 5 4 4 4 5 5 5 5 5 5 5 4 4 5 5 5 5 4 4 4 4 4 4 4 4 4
8 8 7 7 7 7 7 7 7 6 6 6 6 5 5 5 5 4 4 3 3 3 4 4 5 4 4 4 4 4 4 4 4 4 4 4 4 4 4 4 4 4 4
7 7 7 7 7 7 6 6 6 6 6 6 5 5 5 5 4 4 4 3 3 2 3 4 4 4 3 3 3 3 3 3 3 3 3 3 3 3 3 3 3 3 3
7 7 7 7 7 6 6 6 6 6 5 5 5 5 5 4 4 4 3 3 3 2 2 3 3 3 3 3 3 3 3 3 3 3 3 3 3 3 3 3 3 3 3
7 7 7 6 6 6 6 6 5 5 5 5 5 4 4 4 4 3 3 3 2 2 2 2 3 3 2 2 2 2 2 2 2 3 3 3 3 3 3 3 3 3 3
7 7 6 6 6 6 6 5 5 5 5 4 4 4 4 4 3 3 3 3 2 2 1 1 2 2 2 2 2 2 2 2 2 2 2 2 2 2 2 2 2 2 2
6 6 6 6 6 5 5 5 5 5 4 4 4 4 3 3 3 3 2 2 2 1 1 1 1 1 1 1 1 2 2 2 2 2 2 2 2 2 2 2 2 2 2
6 6 5 5 5 5 5 5 4 4 4 4 4 3 3 3 3 2 2 2 1 1 0 0 0 0 0 0 0 0 1 1 1 1 2 2 2 2 2 2 2 2 2
5 5 5 5 5 5 5 4 4 4 4 4 3 3 3 3 3 2 2 1 1 0 0 -0 -0 -0 -0 -0 -0 -0 -0 0 1 1 1 1 1 1 1 1 1 1 1
5 5 5 4 4 4 4 4 4 4 3 3 3 3 3 3 2 2 1 1 1 0 -0 -0 -1 -1 -1 -1 -1 -1 -1 -1 -0 0 0 1 1 1 1 1 1 1 1
4 4 4 4 4 4 4 4 3 3 3 3 3 2 2 2 2 1 1 1 0 0 -0 -0 -1 -1 -1 -1 -1 -1 -1 -1 -1 -1 -0 0 0 0 0 0 0 0 0
4 4 4 4 4 3 3 3 3 3 3 2 2 2 2 2 1 1 1 1 0 0 -0 -0 -1 -1 -1 -1 -1 -1 -1 -1 -1 -1 -1 -1 -0 -0 0 0 -0 -0 0
3 3 3 3 3 3 3 3 2 2 2 2 2 2 1 1 1 1 0 0 0 -0 -0 -0 -1 -1 -1 -1 -1 -1 -1 -1 -1 -1 -1 -1 -1 -1 -0 -0 -0 -0 -0
3 3 3 3 3 3 3 2 2 2 1 2 1 1 1 1 1 0 -0 -0 -0 -0 -1 -1 -1 -1 -1 -1 -1 -1 -2 -2 -2 -2 -1 -2 -2 -2 -1 -1 -1 -1 -1
Wind_Speed
3 3 3 2 2 2 2 2 2 2 2 3 2 2 2 2 2 2 2 4 5 6 7 8 8 9 9 10 10 10 11 11 12 12 13 13 14 14 14 15 15 16 16
4 3 3 2 2 2 2 2 2 2 2 2 2 2 2 2 2 3 3 3 4 6 7 9 10 10 11 11 11 11 12 12 12 13 14 14 14 15 16 16 16 16 17
4 3 2 2 2 2 2 2 2 2 2 2 2 2 2 2 2 3 3 4 4 4 6 8 10 10 11 11 12 12 13 13 14 14 15 15 16 16 16 17 17 17 17
4 3 2 2 2 2 2 2 2 2 2 2 2 2 2 2 2 3 3 4 4 5 6 7 9 10 11 12 12 13 14 14 14 15 16 16 17 18 18 18 18 18 18
4 3 2 2 2 2 2 2 2 2 2 2 2 3 3 2 2 2 3 4 4 5 6 7 8 9 11 12 13 14 14 15 15 16 16 17 17 18 19 19 18 19 19
4 3 2 2 1 1 1 1 2 2 2 2 2 3 3 2 2 3 4 4 5 6 7 8 8 8 10 12 13 14 15 16 16 16 17 17 17 18 19 19 19 19 20
4 3 2 2 1 1 1 1 1 2 2 3 2 2 2 2 2 3 4 4 5 6 7 8 8 8 8 10 12 13 15 16 17 17 18 17 18 18 19 20 20 20 20
3 2 2 1 1 1 1 1 1 1 1 2 2 3 2 2 1 3 3 4 6 6 7 8 9 9 9 9 10 13 15 17 18 19 18 18 18 19 20 20 20 21 21
3 3 2 2 1 1 0 0 0 1 1 1 2 2 2 3 5 3 4 4 6 6 7 8 9 10 10 10 10 11 15 17 19 19 19 19 19 20 21 20 20 20 21
4 3 3 2 1 1 1 0 0 1 1 1 1 1 2 3 3 4 4 5 7 8 8 8 9 9 10 10 11 13 16 17 18 19 20 19 20 20 20 19 19 19 20
4 3 3 2 2 1 1 1 0 1 1 1 1 2 2 3 4 5 6 7 7 6 7 8 8 8 9 10 11 13 16 17 18 18 18 18 19 19 19 20 20 20 20
3 4 3 3 2 2 2 1 1 1 1 1 2 2 2 3 4 5 6 9 9 8 9 7 7 7 8 10 12 14 16 17 17 18 18 19 19 19 20 20 20 20 20
4 4 4 3 3 2 2 2 2 2 2 2 2 2 3 4 4 5 7 8 9 9 8 6 6 7 8 10 11 15 16 16 17 18 18 19 19 19 19 19 20 20 20
4 4 4 4 3 3 2 2 2 2 2 2 3 3 3 4 4 5 6 7 9 8 8 9 7 7 8 11 12 15 14 16 17 18 19 19 19 18 19 19 19 20 20
4 5 4 4 4 3 3 3 2 2 2 3 3 4 4 4 4 5 6 6 7 9 10 9 7 8 10 11 13 14 14 16 18 19 18 18 18 18 18 18 18 19 19
4 5 4 4 4 3 3 3 2 3 3 3 3 4 5 4 5 5 5 6 7 8 9 9 10 12 12 11 14 14 15 18 17 18 18 18 18 17 17 18 18 19 19
5 5 5 4 4 3 3 3 3 3 4 4 4 5 5 6 5 5 5 6 7 7 11 12 11 12 14 13 12 13 14 13 13 16 17 18 18 17 17 17 17 17 16
5 5 4 4 4 3 3 3 3 4 4 5 5 6 6 5 6 6 6 7 7 8 10 13 12 12 14 13 13 13 12 12 12 15 17 17 17 17 16 16 15 15 15
5 4 4 4 3 3 3 3 4 4 4 5 5 6 6 6 7 6 7 7 7 8 8 10 12 11 11 11 12 12 13 11 12 13 14 14 15 16 15 15 14 14 14
5 4 4 3 3 3 3 3 3 4 5 5 5 6 7 7 7 8 7 8 8 8 9 9 10 10 10 11 10 11 11 11 11 11 12 12 13 14 13 13 13 13 13
4 4 3 3 3 2 3 3 3 4 4 5 5 6 6 7 8 8 7 8 8 8 8 8 9 9 9 10 10 10 11 12 12 8 9 9 9 8 8 10 11 12 13
4 3 3 3 3 2 2 3 4 4 4 5 5 6 6 7 7 9 10 10 10 9 9 9 9 10 11 11 10 10 10 11 9 7 9 9 8 8 7 7 10 11 12
4 3 3 3 3 2 2 3 4 3 4 4 5 6 5 6 7 7 8 9 10 11 11 10 11 11 11 11 11 11 11 11 10 9 9 8 7 7 7 8 10 10 11
3 3 3 3 2 2 2 3 3 3 4 4 5 6 6 7 6 7 8 8 9 9 9 9 9 11 11 11 10 10 10 10 9 7 6 6 7 7 8 7 8 9 11
3 2 2 2 2 2 1 2 3 3 3 4 5 5 6 6 7 9 8 8 9 8 8 9 11 11 12 12 10 7 7 7 7 7 5 4 6 7 7 6 7 9 11
3 2 2 2 2 2 1 2 3 2 3 4 4 5 5 7 8 9 7 7 8 9 9 9 8 8 8 8 9 7 6 6 6 5 4 5 5 6 5 4 6 7 9
Wind_Direction
112 104 93 82 75 64 53 34 34 32 19 15 5 349 340 326 319 316 338 9 351 343 338 333 329 328 325 320 318 313 309 306 304 303 301 296 290 286 283 281 279 276 276
115 113 105 88 73 59 39 28 29 14 10 9 359 353 334 322 320 313 316 331 349 339 334 331 328 325 324 321 317 315 310 306 304 302 300 296 293 289 283 281 279 279 277
120 117 106 92 68 54 40 33 32 17 12 4 357 353 342 326 321 324 324 323 331 344 337 331 330 328 325 322 319 315 312 308 304 300 298 294 292 289 286 284 282 279 278
123 117 107 87 64 52 42 38 16 14 6 352 346 344 331 321 319 329 334 333 331 334 340 342 336 330 326 323 319 316 314 312 308 302 297 294 291 289 285 283 283 283 281
130 123 106 91 82 62 46 37 24 5 356 349 339 332 327 313 316 318 329 334 335 330 327 332 330 327 325 322 320 317 315 313 309 306 303 296 291 290 288 284 282 282 281
137 126 114 104 90 83 58 38 36 17 356 341 326 322 316 312 303 316 322 328 330 330 328 327 324 325 327 324 321 319 315 314 309 306 304 301 297 294 293 288 285 284 283
143 134 125 120 111 97 60 39 31 19 7 343 317 321 303 284 296 309 312 319 322 325 324 325 324 323 322 323 321 320 318 317 313 308 304 301 300 299 295 291 286 284 283
153 148 145 143 138 131 96 54 23 355 1 351 324 312 309 287 295 308 308 312 317 321 320 322 321 319 319 319 320 319 319 316 313 308 305 303 300 299 297 292 288 286 284
164 163 166 156 154 176 171 67 327 319 334 351 347 320 307 305 316 292 307 308 315 317 316 321 320 319 317 316 315 318 317 316 314 311 306 304 302 300 299 295 291 290 288
173 175 175 174 173 179 184 208 281 291 281 310 339 334 309 304 299 303 300 306 314 313 314 315 315 316 315 314 312 314 316 314 314 313 309 308 306 302 301 301 297 294 293
178 180 180 180 185 189 192 202 220 251 268 280 292 299 291 286 279 287 299 308 312 311 313 310 308 312 315 313 313 317 317 315 318 315 312 310 307 307 305 302 301 296 293
182 184 186 187 192 193 196 208 220 230 246 258 270 273 280 283 294 293 293 303 308 308 308 303 303 310 316 316 316 321 318 316 316 314 312 311 309 307 305 303 302 299 294
190 193 191 195 196 197 197 203 219 232 238 250 262 271 274 278 284 287 287 296 302 303 303 299 306 311 315 316 317 320 315 314 314 313 311 310 309 308 306 305 302 302 297
194 191 195 199 201 202 203 207 220 235 245 253 264 271 274 277 278 278 283 293 299 300 299 302 308 310 317 314 314 312 310 312 312 311 309 308 308 309 308 306 305 303 301
187 189 194 197 199 204 210 216 228 238 252 262 267 272 277 279 278 279 279 280 285 296 301 306 311 310 314 311 311 310 310 311 309 308 308 308 307 308 307 307 306 304 303
183 184 191 193 195 203 209 219 235 245 257 266 271 274 280 281 280 278 276 275 273 279 287 296 305 307 311 309 311 311 310 309 305 307 308 308 308 308 307 307 306 306 304
182 186 189 191 196 206 215 225 241 249 259 271 274 277 282 283 282 281 279 274 273 275 281 291 300 307 309 310 313 315 312 311 309 307 309 309 310 309 308 308 307 308 308
181 185 186 191 199 209 220 232 246 252 262 272 278 281 284 284 282 284 284 280 279 279 282 290 299 307 309 311 313 314 316 313 310 310 310 311 313 312 313 313 313 313 312
179 182 187 196 205 215 227 240 253 257 263 271 276 279 283 285 285 287 288 286 285 285 284 288 296 303 306 311 316 315 316 314 314 313 310 312 313 315 316 315 316 318 317
180 183 192 201 210 220 230 244 257 263 269 276 277 278 280 281 284 289 290 291 293 294 293 292 294 301 307 314 316 318 318 319 317 316 315 315 316 318 320 321 322 323 323
182 184 190 198 209 220 230 252 265 267 272 280 283 282 281 285 290 290 291 296 298 295 296 295 296 303 308 316 316 316 314 317 316 319 321 321 321 321 324 326 328 332 334
179 182 190 199 212 226 243 265 276 268 272 277 286 291 291 287 291 291 293 296 296 292 294 294 295 299 305 309 312 313 315 316 315 325 321 316 320 320 325 327 334 337 338
180 187 195 202 221 238 243 264 281 277 274 279 286 294 299 299 298 297 298 298 295 288 284 285 289 296 301 307 310 311 311 309 306 314 315 308 319 320 323 331 337 341 343
184 191 201 209 229 247 253 275 287 278 281 285 286 290 296 304 308 308 307 305 303 300 298 295 294 297 301 304 305 302 302 303 302 310 318 306 317 318 322 327 340 344 341
186 195 206 212 234 252 260 290 295 284 284 291 294 293 296 300 311 314 311 307 308 311 313 307 306 307 311 312 315 312 314 315 313 316 328 314 313 318 316 317 334 341 340
186 189 203 216 232 252 271 287 295 280 286 295 299 298 299 304 312 314 310 308 308 314 319 319 318 321 322 325 330 324 314 310 311 311 333 327 315 325 319 315 325 331 334
Height
1524 1524 1524 1524 1524 1524 1524 1524 1523 1523 1523 1522 1522 1521 1520 1519 1518 1517 1516 1515 1515 1514 1512 1511 1510 1509 1508 1506 1505 1504 1503 1501 1500 1499 1497 1496 1495 1493 1492 1492 1490 1489 1489
1522 1523 1523 1523 1523 1523 1523 1522 1522 1521 1521 1520 1520 1519 1518 1517 1516 1515 1514 1513 1512 1511 1510 1508 1507 1506 1504 1503 1501 1500 1499 1497 1496 1494 1493 1491 1490 1488 1487 1486 1485 1484 1483
1521 1522 1522 1522 1522 1522 1521 1521 1521 1520 1519 1519 1518 1517 1516 1515 1514 1513 1512 1511 1509 1508 1506 1505 1504 1502 1501 1499 1498 1496 1494 1493 1491 1490 1488 1486 1485 1484 1482 1481 1479 1478 1477
1520 1520 1520 1520 1520 1520 1520 1520 1519 1519 1518 1517 1516 1515 1514 1513 1512 1511 1510 1508 1507 1505 1504 1502 1500 1499 1497 1495 1494 1492 1490 1488 1486 1485 1483 1481 1480 1478 1477 1475 1474 1472 1471
1518 1519 1519 1519 1519 1519 1519 1518 1518 1517 1517 1516 1515 1514 1512 1511 1510 1509 1508 1506 1505 1503 1501 1499 1497 1495 1493 1491 1489 1488 1486 1484 1482 1479 1477 1476 1474 1472 1471 1469 1468 1466 1465
1517 1517 1517 1518 1517 1517 1517 1517 1516 1516 1515 1514 1513 1512 1510 1509 1508 1507 1506 1504 1502 1500 1498 1496 1494 1492 1490 1487 1485 1483 1481 1479 1477 1474 1472 1470 1468 1466 1465 1463 1462 1460 1459
1515 1516 1516 1516 1516 1516 1515 1515 1515 1514 1513 1512 1511 1510 1508 1507 1506 1505 1503 1502 1500 1498 1496 1493 1491 1489 1486 1483 1481 1479 1476 1474 1471 1469 1467 1464 1462 1461 1459 1457 1455 1454 1453
1513 1514 1514 1514 1514 1514 1514 1513 1513 1512 1512 1511 1510 1509 1508 1508 1505 1503 1501 1499 1498 1496 1493 1491 1488 1485 1483 1480 1477 1474 1471 1469 1466 1463 1461 1459 1457 1455 1453 1451 1449 1448 1446
1511 1512 1512 1512 1512 1512 1512 1512 1511 1511 1510 1510 1509 1510 1509 1506 1503 1501 1499 1497 1495 1493 1491 1488 1485 1482 1479 1476 1473 1470 1467 1464 1461 1458 1456 1453 1451 1449 1447 1445 1443 1441 1440
1509 1510 1511 1511 1511 1511 1511 1510 1510 1509 1509 1508 1508 1507 1507 1505 1503 1499 1497 1495 1493 1491 1488 1485 1482 1479 1476 1472 1469 1466 1463 1459 1456 1453 1450 1447 1445 1443 1441 1439 1437 1435 1433
1507 1508 1509 1509 1509 1509 1509 1509 1508 1508 1507 1506 1505 1504 1504 1502 1501 1499 1495 1492 1490 1488 1485 1482 1479 1476 1473 1469 1465 1462 1458 1455 1452 1448 1444 1442 1440 1438 1435 1433 1431 1429 1427
1505 1506 1506 1507 1507 1507 1507 1507 1506 1505 1505 1504 1503 1502 1501 1500 1499 1497 1493 1490 1487 1484 1482 1479 1476 1473 1469 1465 1462 1458 1454 1451 1447 1444 1440 1437 1435 1432 1429 1427 1425 1422 1420
1502 1503 1504 1504 1505 1505 1505 1504 1504 1503 1503 1502 1501 1500 1498 1497 1496 1494 1491 1487 1483 1480 1478 1475 1473 1470 1466 1462 1458 1454 1450 1446 1443 1439 1436 1433 1429 1426 1424 1421 1418 1416 1413
1500 1500 1501 1502 1502 1502 1502 1502 1501 1501 1500 1499 1498 1497 1496 1494 1493 1491 1489 1485 1480 1476 1474 1472 1469 1466 1462 1458 1454 1450 1445 1442 1438 1434 1431 1428 1424 1421 1418 1415 1412 1409 1407
1497 1498 1498 1499 1499 1499 1499 1499 1499 1498 1497 1496 1495 1494 1493 1491 1489 1487 1486 1483 1481 1474 1469 1466 1465 1461 1458 1454 1450 1446 1441 1437 1434 1430 1426 1423 1419 1416 1413 1410 1407 1404 1401
1493 1494 1495 1496 1496 1496 1496 1496 1496 1495 1494 1493 1492 1491 1489 1487 1485 1483 1481 1479 1477 1474 1467 1462 1460 1457 1453 1450 1446 1442 1437 1433 1429 1425 1422 1418 1414 1411 1408 1404 1401 1398 1395
1490 1491 1492 1493 1493 1493 1493 1493 1493 1492 1491 1490 1489 1487 1486 1484 1482 1480 1477 1475 1473 1470 1464 1458 1456 1453 1449 1445 1441 1437 1433 1429 1424 1421 1417 1413 1410 1406 1403 1399 1396 1393 1390
1487 1488 1489 1490 1490 1490 1490 1490 1489 1489 1488 1486 1485 1484 1482 1480 1478 1476 1473 1471 1468 1466 1462 1455 1451 1448 1445 1441 1437 1433 1429 1425 1421 1417 1413 1409 1405 1402 1398 1395 1392 1388 1385
1484 1485 1486 1486 1487 1487 1487 1487 1486 1485 1484 1483 1481 1480 1478 1476 1474 1472 1469 1467 1464 1461 1458 1453 1448 1444 1441 1437 1433 1428 1425 1420 1416 1412 1408 1405 1401 1397 1394 1390 1387 1384 1380
1481 1482 1483 1483 1484 1484 1484 1483 1482 1481 1480 1479 1477 1476 1474 1472 1469 1467 1465 1462 1460 1457 1454 1450 1445 1441 1437 1434 1430 1424 1419 1416 1412 1408 1405 1401 1397 1393 1390 1387 1384 1380 1377
1477 1479 1479 1480 1480 1480 1480 1480 1479 1478 1476 1475 1474 1472 1470 1468 1465 1463 1461 1458 1455 1452 1449 1446 1442 1438 1434 1430 1427 1422 1417 1412 1409 1405 1401 1397 1394 1390 1387 1384 1380 1377 1374
1474 1475 1476 1476 1477 1477 1477 1476 1476 1474 1473 1471 1470 1468 1466 1464 1461 1459 1457 1454 1452 1449 1446 1443 1439 1435 1431 1428 1424 1420 1415 1411 1405 1403 1399 1395 1392 1388 1385 1381 1378 1375 1372
1470 1471 1472 1473 1473 1473 1473 1473 1472 1471 1469 1468 1466 1464 1462 1460 1458 1455 1453 1450 1448 1445 1443 1440 1436 1432 1429 1425 1421 1417 1414 1409 1405 1401 1397 1392 1389 1386 1383 1379 1376 1373 1370
1467 1468 1469 1469 1470 1470 1470 1469 1468 1467 1466 1464 1463 1461 1459 1456 1454 1452 1449 1446 1444 1441 1439 1436 1433 1429 1426 1423 1419 1416 1411 1407 1403 1400 1396 1391 1387 1384 1381 1378 1375 1371 1368
1464 1465 1466 1466 1466 1466 1466 1466 1465 1463 1462 1461 1459 1457 1455 1453 1451 1449 1446 1443 1440 1437 1435 1432 1429 1426 1423 1420 1416 1413 1408 1404 1400 1397 1394 1391 1386 1382 1379 1376 1374 1370 1367
1461 1462 1462 1463 1463 1463 1463 1462 1461 1460 1458 1457 1456 1454 1452 1450 1448 1446 1443 1440 1437 1434 1431 1428 1426 1423 1420 1417 1414 1411 1407 1403 1399 1395 1392 1390 1386 1383 1378 1375 1373 1370 1366